DW4707 Campi Bisenzio - Firenze IT current weather conditions

sailwx.info

Last reported at 2014-Nov-22 14:22 UTC.
Time now 2014-Nov-28 14:35 UTC

Location: N 43°50' E 011°08'.
View on Google Maps.

See reports from other nearby stations

  
Tides and Currents Weather Stations Pressure Air Temp Water Temp Dewpoint Dewpoint Depression Visibility Wind Speed Wind Dir Waves Ship Positions
date/time (UTC)wind fromknots sea level pressurealtimeterstation pressurevisibilityair tempwater tempwave heightnotes
2014-Nov-28 13:46 045 16.1
2014-Nov-28 13:26 045 16.1
2014-Nov-28 13:16 045 16.1
2014-Nov-28 12:56 045 16.1
2014-Nov-28 12:46 045 16.1
2014-Nov-28 12:26 045 16.1
2014-Nov-28 12:16 045 15.6
2014-Nov-28 11:56 050 15.6
2014-Nov-28 11:46 068 15.6
2014-Nov-28 11:26 068 15.0
2014-Nov-28 11:16 180 14.4
2014-Nov-28 10:56 180 14.4
2014-Nov-28 10:46 112 14.4
2014-Nov-28 10:26 022 13.9
2014-Nov-28 10:16 022 13.9
2014-Nov-28 09:56 022 13.9
2014-Nov-28 09:46 202 13.3
2014-Nov-28 09:26 202 13.3
2014-Nov-28 09:16 202 13.3
2014-Nov-28 08:56 13.3
2014-Nov-28 08:46 12.8
2014-Nov-28 08:26 202 12.8
2014-Nov-28 08:16 202 12.8
2014-Nov-28 07:56 202 12.8
2014-Nov-28 07:46 202 12.8
2014-Nov-28 07:26 202 12.8
2014-Nov-28 07:16 202 12.8
2014-Nov-28 06:56 180 12.8
2014-Nov-28 06:46 180 12.8
2014-Nov-28 05:46 022 13.3
2014-Nov-28 05:26 022 13.3
2014-Nov-28 05:16 022 13.3
2014-Nov-28 04:56 022 13.3
2014-Nov-28 04:46 022 13.3
2014-Nov-28 04:26 022 13.3
2014-Nov-28 04:16 022 13.3
2014-Nov-28 03:56 022 13.3
2014-Nov-28 03:46 022 13.3
2014-Nov-28 03:26 022 13.3
2014-Nov-28 03:16 022 13.3
2014-Nov-28 02:56 022 13.3
2014-Nov-28 02:46 022 13.3
2014-Nov-28 02:26 022 13.9
2014-Nov-28 02:16 022 13.9
2014-Nov-28 01:56 022 13.9
2014-Nov-28 01:46 022 13.9
2014-Nov-28 01:26 022 13.9
2014-Nov-28 01:16 022 13.9
2014-Nov-28 00:56 022 13.9
2014-Nov-28 00:46 022 13.9
2014-Nov-28 00:26 022 13.9
2014-Nov-28 00:16 022 13.9
2014-Nov-27 23:56 022 13.9
2014-Nov-27 23:46 022 13.9
2014-Nov-27 23:26 022 13.9
2014-Nov-27 23:16 022 13.9
2014-Nov-27 22:56 022 13.9
2014-Nov-27 22:46 022 13.9
2014-Nov-27 22:26 022 13.9
2014-Nov-27 22:16 022 13.9
2014-Nov-27 21:56 022 13.9
2014-Nov-27 21:46 022 13.9
2014-Nov-27 21:26 022 13.9
2014-Nov-27 21:16 022 13.9
2014-Nov-27 20:56 022 13.9
2014-Nov-27 20:46 022 13.9
2014-Nov-27 20:26 022 13.9
2014-Nov-27 20:16 022 13.9
2014-Nov-27 19:56 022 14.4
2014-Nov-27 19:46 14.4
2014-Nov-27 19:26 13.9
2014-Nov-27 19:16 14.4
2014-Nov-27 18:56 13.9
2014-Nov-27 18:46 13.9
2014-Nov-27 18:26 022 14.4
2014-Nov-27 18:16 068 13.9
2014-Nov-27 17:56 14.4
2014-Nov-27 17:46 14.4
2014-Nov-27 17:26 14.4
2014-Nov-27 17:16 14.4
2014-Nov-27 16:56 14.4
2014-Nov-27 16:46 14.4
2014-Nov-27 16:26 14.4
2014-Nov-27 16:16 158 14.4
2014-Nov-27 15:56 022 15.0
2014-Nov-27 15:46 022 15.0
2014-Nov-27 15:26 022 15.6
2014-Nov-27 15:16 022 15.6
2014-Nov-27 14:56 022 16.1
2014-Nov-27 14:46 022 16.1
2014-Nov-27 14:26 022 16.1
2014-Nov-27 14:16 022 16.1
2014-Nov-27 13:56 022 16.1
2014-Nov-27 13:46 022 16.1
2014-Nov-27 13:26 022 16.1
2014-Nov-27 13:16 022 16.7
2014-Nov-27 12:56 180 16.7
2014-Nov-27 12:46 022 16.7
2014-Nov-27 12:26 202 16.7
2014-Nov-27 12:16 202 16.1
2014-Nov-27 11:56 111 16.1
2014-Nov-27 11:46 15.6
2014-Nov-27 11:26 199 15.6
2014-Nov-27 11:16 248 15.0
2014-Nov-27 10:56 010 14.4
2014-Nov-27 10:46 022 14.4
2014-Nov-27 10:26 180 13.9
2014-Nov-27 10:16 180 13.9
2014-Nov-27 09:56 180 13.9
2014-Nov-27 09:46 180 13.9
2014-Nov-27 09:26 13.3
2014-Nov-27 09:16 13.3
2014-Nov-27 08:56 12.8
2014-Nov-27 08:46 12.8
2014-Nov-27 08:26 12.8
2014-Nov-27 08:16 12.8
2014-Nov-27 07:56 12.8
2014-Nov-27 07:46 12.8
2014-Nov-27 07:26 022 12.8
2014-Nov-27 07:16 022 12.8
2014-Nov-27 06:56 315 12.8
2014-Nov-27 06:46 315 12.8
2014-Nov-27 06:26 315 12.8
2014-Nov-27 06:16 315 12.8
2014-Nov-27 05:56 315 12.2
2014-Nov-27 05:46 315 12.2
2014-Nov-27 05:26 292 12.2
2014-Nov-27 05:16 338 12.2
2014-Nov-27 04:56 338 12.2
2014-Nov-27 04:46 338 12.2
2014-Nov-27 04:26 338 12.2
2014-Nov-27 04:16 12.2
2014-Nov-27 03:56 12.2
2014-Nov-27 03:46 022 12.2
2014-Nov-27 03:26 183 12.8
2014-Nov-27 03:16 202 12.8
2014-Nov-27 02:56 022 12.8
2014-Nov-27 02:46 022 12.8
2014-Nov-27 02:26 12.2
2014-Nov-27 02:16 001 12.2
2014-Nov-27 01:56 045 12.2
2014-Nov-27 01:46 045 12.2
2014-Nov-27 01:26 045 12.8
2014-Nov-27 01:16 045 12.8
2014-Nov-27 00:56 045 12.8
2014-Nov-27 00:46 045 12.8
2014-Nov-27 00:26 045 12.8
2014-Nov-27 00:16 045 12.8
2014-Nov-26 23:56 045 12.8
2014-Nov-26 23:46 037 12.8
2014-Nov-26 23:26 022 12.8
2014-Nov-26 23:16 022 12.8
2014-Nov-26 22:56 022 12.8
2014-Nov-26 22:46 022 12.8
2014-Nov-26 22:26 12.8
2014-Nov-26 22:16 12.8
2014-Nov-26 21:56 045 12.8
2014-Nov-26 21:46 045 12.8
2014-Nov-26 21:26 022 12.8
2014-Nov-26 21:16 12.8
2014-Nov-26 20:56 12.8
2014-Nov-26 20:46 12.8
2014-Nov-26 20:26 050 12.8
2014-Nov-26 20:16 174 12.8
2014-Nov-26 19:56 022 12.8
2014-Nov-26 19:46 022 12.8
2014-Nov-26 19:26 022 12.8
2014-Nov-26 19:16 022 12.8
2014-Nov-26 18:56 022 12.8
2014-Nov-26 18:46 040 12.8
2014-Nov-26 18:26 022 12.8
2014-Nov-26 18:16 022 12.8
2014-Nov-26 17:56 022 12.8
2014-Nov-26 17:46 300 12.8
2014-Nov-26 17:26 022 0 gusting 0 12.8
2014-Nov-26 17:16 034 12.2
2014-Nov-26 16:56 014 12.8
2014-Nov-26 16:46 059 12.8
2014-Nov-26 16:26 135 13.3
2014-Nov-26 16:16 068 13.3
2014-Nov-26 15:56 044 13.3
2014-Nov-26 15:46 13.3
2014-Nov-26 15:26 057 0 gusting 0 13.9
2014-Nov-26 15:16 195 14.4
2014-Nov-26 14:56 14.4
2014-Nov-26 14:46 045 15.0
2014-Nov-26 14:26 045 15.6
2014-Nov-26 14:16 068 15.6